This demonstration page uses our WeatherBlox Daily Observations layout. Learn more.

Left ArrowRight Arrow

44.8408, -93.29828

Hourly Observations for September 21, 2017

Temp ( °F °C ) Dew Point ( °F °C ) Humidity (%) Winds ( mph kmh ) Pressure ( in mb ) Visibility ( mi km ) Precip ( " mm )
12:53 am 00:53 Clear 58 14.4 55 12.8 90 90 Calm 29.98 1015 10 16 0.00 0.00
1:53 am 01:53 Clear 57 13.9 52 11.1 83 83 Calm 29.99 1016 10 16 0.00 0.00
2:53 am 02:53 Clear 58 14.4 54 12.2 87 87 Calm 29.98 1015 10 16 0.00 0.00
3:53 am 03:53 Clear 54 12.2 53 11.7 97 97 Calm 29.98 1015 10 16 0.00 0.00
4:53 am 04:53 Clear 56 13.3 51 10.6 84 84 ESE 3 6 29.98 1015 10 16 0.00 0.00
5:53 am 05:53 Clear 56 13.3 51 10.6 84 84 Calm 29.98 1015 10 16 0.00 0.00
6:53 am 06:53 Clear 56 13.3 50 10 81 81 ESE 7 11 29.99 1016 10 16 0.00 0.00
7:53 am 07:53 Sunny 57 13.9 50 10 78 78 E 6 9 29.99 1016 10 16 0.00 0.00
8:53 am 08:53 Sunny 62 16.7 53 11.7 73 73 ESE 15 24 29.97 1015 10 16 0.00 0.00
9:53 am 09:53 Sunny 66 18.9 54 12.2 65 65 ESE 14 22 29.97 1015 10 16 0.00 0.00
10:53 am 10:53 Sunny 69 20.6 57 13.9 66 66 ESE 14 22 29.95 1014 10 16 0.00 0.00
11:53 am 11:53 Sunny 74 23.3 58 14.4 57 57 SE 15 24 29.93 1013 10 16 0.00 0.00
12:53 pm 12:53 Mostly Sunny 76 24.4 62 16.7 62 62 SE 13 20 29.90 1013 10 16 0.00 0.00
1:53 pm 13:53 Mostly Sunny 79 26.1 66 18.9 65 65 SE 12 19 29.87 1012 10 16 0.00 0.00
2:53 pm 14:53 Mostly Sunny 81 27.2 68 20 65 65 SSE 17 28 29.84 1010 10 16 0.00 0.00
3:53 pm 15:53 Mostly Sunny 83 28.3 69 20.6 63 63 SSE 14 22 29.81 1010 10 16 0.00 0.00
4:53 pm 16:53 Mostly Sunny 83 28.3 69 20.6 63 63 SE 16 26 29.80 1009 10 16 0.00 0.00
5:53 pm 17:53 Mostly Sunny 83 28.3 70 21.1 65 65 SE 10 17 29.79 1009 10 16 0.00 0.00
6:53 pm 18:53 Partly Cloudy 81 27.2 70 21.1 69 69 E 12 19 29.78 1009 10 16 0.00 0.00
7:53 pm 19:53 Mostly Cloudy 80 26.7 69 20.6 69 69 ESE 15 24 29.78 1008 10 16 0.00 0.00
8:53 pm 20:53 Partly Cloudy 79 26.1 69 20.6 72 72 SE 14 22 29.79 1009 10 16 0.00 0.00
9:53 pm 21:53 Partly Cloudy 78 25.6 68 20 71 71 SE 10 17 29.80 1009 10 16 0.00 0.00
10:53 pm 22:53 Mostly Clear 76 24.4 68 20 77 77 SE 8 13 29.82 1010 10 16 0.00 0.00
11:53 pm 23:53 Mostly Clear 76 24.4 69 20.6 79 79 SE 10 17 29.82 1010 10 16 0.00 0.00

Powered by AerisWeather